Location: Riddle Hill
(39.7867°N, 89.7645°W)
Time: 20:44:41
(UTC+00:00)

Cosmos 968 Rocket - Pass Details

Date: 29 October 2020
Orbit: 741 x 770 km, 74.0° (Epoch: 30 November)

Event Time Altitude Azimuth Distance (km) Brightness Sun altitude
Rises 23:17:39 0° 351° (N) 3,233 6.7 -4.1°
Reaches altitude 10° 23:20:24 10° 4° (N) 2,298 5.8 -4.6°
Maximum altitude 23:24:46 27° 61° (ENE) 1,442 4.4 -5.4°
Drops below altitude 10° 23:29:05 10° 119° (ESE) 2,270 5.5 -6.2°
Sets 23:31:47 0° 131° (SE) 3,185 6.3 -6.8°
